Ypsilanti, MI

6:30 PM EST on February 05, 2016 (GMT -0500)
Willow Run

Weather History for KYIP - January, 2008

Change the Weather History Date:

Tuesday, January 1, 2008

  Actual Average Record
Temperature  
Mean Temperature 30 °F -  
Max Temperature 33 °F 32 °F 54 °F (2011)
Min Temperature 24 °F 19 °F 5 °F (1977)
Degree Days  
Heating Degree Days 34    
Moisture  
Dew Point 27 °F    
Average Humidity 89    
Maximum Humidity 96    
Minimum Humidity 80    
Precipitation  
Precipitation 0.06 in - - ()
Sea Level Pressure  
Sea Level Pressure 29.80 in    
Wind  
Wind Speed 12 mph (NW)    
Max Wind Speed 24 mph    
Max Gust Speed 30 mph    
Visibility 3 miles    
Events Fog , Snow    
Averages and records for this station are not official NWS values.
T = Trace of Precipitation, MM = Missing Value Source: NWS Daily Summary

Daily Weather History Graph

Daily Weather History Graph

Search for Another Location

Airport or City:

Trip Planner

Search our weather history database for the weather conditions in past years. The results will help you decide how hot, cold, wet, or windy it might be!

Date:

Astronomy

Jan. 01, 2008 Rise Set
Actual Time 8:02 AM EST 5:12 PM EST
Civil Twilight 7:31 AM EST 5:43 PM EST
Nautical Twilight 6:55 AM EST 6:19 PM EST
Astronomical Twilight 6:21 AM EST 6:53 PM EST
Moon 1:47 AM EST (1/1) 12:28 PM EST (1/1)
Length of Visible Light 10h 12m
Length of Day
9h 09m
Last Quarter, 37% of the Moon is Illuminated
Jan 1
Last Quarter
Jan 8
New
Jan 15
First Quarter
Jan 22
Full
Jan 30
Last Quarter

Hourly Weather History & Observations

Time (EST) Temp. Windchill Dew Point Humidity Pressure Visibility Wind Dir Wind Speed Gust Speed Precip Events Conditions
12:53 AM 32.0 °F 22.1 °F 30.9 °F 96% 29.64 in 0.5 mi ENE 13.8 mph - 0.01 in Fog , Snow Snow
1:29 AM 32.0 °F 23.6 °F 30.2 °F 93% 29.60 in 1.0 mi East 10.4 mph - 0.00 in Snow Light Snow
1:53 AM 32.0 °F 22.1 °F 30.9 °F 96% 29.60 in 1.5 mi East 13.8 mph - 0.01 in Snow Light Snow
2:17 AM 33.8 °F 24.8 °F 30.2 °F 87% 29.57 in 2.5 mi East 12.7 mph - 0.00 in Snow Light Snow
2:26 AM 33.8 °F 25.8 °F 30.2 °F 87% 29.56 in 1.5 mi East 10.4 mph - 0.00 in Snow Light Snow
2:51 AM 32.0 °F 26.4 °F 30.2 °F 93% 29.56 in 1.8 mi ENE 5.8 mph - 0.00 in Snow Light Snow
2:53 AM 32.0 °F 26.4 °F 30.9 °F 96% 29.57 in 1.5 mi ENE 5.8 mph - 0.00 in Snow Light Snow
3:02 AM 32.0 °F 27.5 °F 30.2 °F 93% 29.56 in 1.2 mi ENE 4.6 mph - 0.00 in Snow Light Snow
3:24 AM 32.0 °F 26.4 °F 30.2 °F 93% 29.55 in 0.5 mi ENE 5.8 mph - 0.01 in Fog , Snow Snow
3:44 AM 32.0 °F - 30.2 °F 93% 29.54 in 1.5 mi Calm Calm - 0.01 in Snow Light Snow
3:53 AM 32.0 °F - 30.9 °F 96% 29.56 in 1.8 mi Calm Calm - 0.01 in Snow Light Snow
4:07 AM 32.0 °F - 30.2 °F 93% 29.54 in 2.0 mi Calm Calm - 0.00 in Snow Light Snow
4:21 AM 32.0 °F 27.5 °F 30.2 °F 93% 29.54 in 3.0 mi NW 4.6 mph - 0.01 in Snow Light Snow
4:27 AM 32.0 °F 25.6 °F 30.2 °F 93% 29.54 in 1.8 mi NNW 6.9 mph - 0.01 in Snow Light Snow
4:38 AM 32.0 °F 24.8 °F 30.2 °F 93% 29.55 in 2.0 mi NNW 8.1 mph - 0.01 in Snow Light Snow
4:45 AM 32.0 °F 23.6 °F 30.2 °F 93% 29.55 in 0.8 mi NNW 10.4 mph - 0.01 in Snow Light Snow
4:53 AM 32.0 °F 23.0 °F 30.0 °F 92% 29.56 in 0.5 mi NNW 11.5 mph - 0.01 in Fog , Snow Snow
5:08 AM 32.0 °F 21.6 °F 30.2 °F 93% 29.55 in 1.0 mi NNW 15.0 mph - 0.00 in Snow Light Snow
5:50 AM 32.0 °F 19.8 °F 28.4 °F 87% 29.58 in 1.8 mi NW 20.7 mph 26.5 mph 0.01 in Snow Light Snow
5:53 AM 32.0 °F 19.8 °F 28.9 °F 88% 29.60 in 1.5 mi NW 20.7 mph - 0.01 in Snow Light Snow
6:16 AM 32.0 °F 18.9 °F 28.4 °F 87% 29.60 in 1.0 mi NW 24.2 mph 29.9 mph 0.00 in Snow Light Snow
6:23 AM 32.0 °F 20.1 °F 28.4 °F 87% 29.62 in 1.5 mi NW 19.6 mph 29.9 mph 0.00 in Snow Light Snow
6:35 AM 32.0 °F 19.5 °F 28.4 °F 87% 29.63 in 1.8 mi NW 21.9 mph - 0.00 in Snow Light Snow
6:46 AM 32.0 °F 19.2 °F 28.4 °F 87% 29.64 in 1.5 mi NW 23.0 mph - 0.00 in Snow Light Snow
6:53 AM 30.9 °F 17.5 °F 28.0 °F 89% 29.66 in 1.5 mi NW 24.2 mph - 0.00 in Snow Light Snow
7:07 AM 30.2 °F 16.8 °F 28.4 °F 93% 29.66 in 1.8 mi NW 23.0 mph - 0.00 in Snow Light Snow
7:20 AM 30.2 °F 17.1 °F 26.6 °F 86% 29.67 in 2.0 mi NW 21.9 mph 29.9 mph 0.00 in Snow Light Snow
7:53 AM 30.9 °F 18.7 °F 27.0 °F 85% 29.73 in 2.5 mi WNW 19.6 mph - 0.00 in Snow Light Snow
8:01 AM 30.2 °F 17.4 °F 26.6 °F 86% 29.73 in 3.0 mi WNW 20.7 mph 26.5 mph 0.00 in Snow Light Snow
8:04 AM 30.2 °F 17.8 °F 26.6 °F 86% 29.73 in 2.5 mi NW 19.6 mph 26.5 mph 0.00 in Snow Light Snow
8:17 AM 30.2 °F 17.8 °F 26.6 °F 86% 29.74 in 1.2 mi WNW 19.6 mph 29.9 mph 0.00 in Snow Light Snow
8:39 AM 30.2 °F 18.9 °F 26.6 °F 86% 29.76 in 2.5 mi WNW 16.1 mph - 0.00 in Snow Light Snow
8:42 AM 30.2 °F 19.3 °F 26.6 °F 86% 29.77 in 3.0 mi WNW 15.0 mph - 0.00 in Snow Light Snow
8:53 AM 30.0 °F 17.9 °F 26.1 °F 85% 29.79 in 3.0 mi WNW 18.4 mph 25.3 mph 0.00 in Snow Light Snow
9:09 AM 30.2 °F 18.1 °F 26.6 °F 86% 29.79 in 4.0 mi WNW 18.4 mph - 0.00 in   Overcast
9:53 AM 30.0 °F 18.3 °F 25.0 °F 82% 29.84 in 4.0 mi WNW 17.3 mph - 0.00 in   Haze
10:25 AM 28.4 °F 16.6 °F 24.8 °F 86% 29.84 in 7.0 mi WNW 16.1 mph - N/A   Overcast
10:53 AM 28.9 °F 17.3 °F 25.0 °F 85% 29.88 in 4.0 mi WNW 16.1 mph - 0.00 in Snow Light Snow
11:25 AM 28.4 °F 16.6 °F 24.8 °F 86% 29.87 in 7.0 mi WNW 16.1 mph - 0.00 in   Overcast
11:38 AM 30.2 °F 18.9 °F 24.8 °F 80% 29.86 in 6.0 mi WNW 16.1 mph - 0.00 in   Haze
11:53 AM 30.0 °F 18.7 °F 25.0 °F 82% 29.88 in 6.0 mi WNW 16.1 mph - 0.00 in   Haze
12:19 PM 30.2 °F 19.3 °F 24.8 °F 80% 29.87 in 6.0 mi WNW 15.0 mph - 0.00 in Snow Light Snow
12:53 PM 30.0 °F 20.5 °F 25.0 °F 82% 29.91 in 8.0 mi WNW 11.5 mph - 0.00 in   Mostly Cloudy
1:53 PM 30.0 °F 19.1 °F 25.0 °F 82% 29.92 in 9.0 mi WNW 15.0 mph - N/A   Overcast
2:26 PM 30.2 °F 20.2 °F 24.8 °F 80% 29.92 in 4.0 mi WNW 12.7 mph - 0.01 in Snow Light Snow
2:48 PM 30.2 °F 20.2 °F 24.8 °F 80% 29.92 in 9.0 mi WNW 12.7 mph - 0.01 in   Overcast
2:53 PM 30.0 °F 20.5 °F 25.0 °F 82% 29.94 in 10.0 mi WNW 11.5 mph - 0.01 in   Overcast
3:53 PM 30.0 °F 20.5 °F 26.1 °F 85% 29.97 in 4.0 mi WNW 11.5 mph - 0.00 in   Overcast
4:53 PM 30.0 °F 21.1 °F 26.1 °F 85% 29.99 in 3.0 mi WNW 10.4 mph - 0.00 in Snow Light Snow
5:53 PM 30.0 °F 21.1 °F 27.0 °F 88% 30.02 in 3.0 mi WNW 10.4 mph - 0.00 in Snow Light Snow
6:35 PM 30.2 °F 22.6 °F 26.6 °F 86% 30.02 in 2.5 mi WNW 8.1 mph - 0.00 in Snow Light Snow
6:45 PM 30.2 °F 24.3 °F 26.6 °F 86% 30.02 in 3.0 mi NW 5.8 mph - 0.00 in Snow Light Snow
6:53 PM 30.0 °F 23.2 °F 27.0 °F 88% 30.04 in 2.5 mi NW 6.9 mph - 0.00 in Snow Light Snow
7:10 PM 30.2 °F 24.3 °F 26.6 °F 86% 30.02 in 4.0 mi WNW 5.8 mph - 0.00 in   Overcast
7:49 PM 28.4 °F 21.2 °F 26.6 °F 93% 30.03 in 2.5 mi WNW 6.9 mph - 0.00 in Snow Light Snow
7:53 PM 28.9 °F 22.8 °F 27.0 °F 92% 30.05 in 2.5 mi NW 5.8 mph - 0.00 in Snow Light Snow
8:00 PM 28.4 °F 22.2 °F 26.6 °F 93% 30.03 in 1.8 mi WNW 5.8 mph - 0.00 in Snow Light Snow
8:08 PM 28.4 °F 22.2 °F 26.6 °F 93% 30.03 in 1.2 mi NW 5.8 mph - 0.00 in Snow Light Snow
8:28 PM 28.4 °F 21.2 °F 26.6 °F 93% 30.03 in 2.0 mi NW 6.9 mph - 0.00 in Snow Light Snow
8:36 PM 28.4 °F 22.2 °F 26.6 °F 93% 30.03 in 1.2 mi NW 5.8 mph - 0.00 in Snow Light Snow
8:53 PM 28.9 °F 22.8 °F 27.0 °F 92% 30.05 in 1.5 mi NW 5.8 mph - 0.00 in Snow Light Snow
9:12 PM 28.4 °F 22.2 °F 26.6 °F 93% 30.04 in 2.5 mi NNW 5.8 mph - 0.00 in Snow Light Snow
9:19 PM 28.4 °F 23.3 °F 26.6 °F 93% 30.04 in 3.0 mi NNW 4.6 mph - 0.00 in Snow Light Snow
9:31 PM 28.4 °F 22.2 °F 26.6 °F 93% 30.04 in 3.0 mi North 5.8 mph - 0.00 in Snow Light Snow
9:49 PM 28.4 °F 23.3 °F 26.6 °F 93% 30.04 in 2.5 mi North 4.6 mph - 0.00 in Snow Light Snow
9:53 PM 28.9 °F 23.9 °F 26.1 °F 89% 30.06 in 2.5 mi North 4.6 mph - 0.00 in Snow Light Snow
10:04 PM 28.4 °F 23.3 °F 26.6 °F 93% 30.04 in 4.0 mi North 4.6 mph - 0.00 in Snow Light Snow
10:53 PM 28.0 °F 21.7 °F 25.0 °F 88% 30.07 in 10.0 mi NNW 5.8 mph - 0.00 in   Overcast
11:53 PM 24.1 °F 17.0 °F 21.9 °F 91% 30.09 in 10.0 mi NNW 5.8 mph - N/A   Overcast